Theta_e
348 352 348 351 350 348 348 350 350 349 350 350 345 348 346 348 350 349 349 340 345 350 351 353 353 353 350 353 353 352 351 352 352 352 351 352 348 346 347 343 349 351 351
349 351 348 349 346 350 349 350 349 350 349 352 348 342 343 344 347 349 349 348 349 347 352 352 352 352 352 351 350 352 350 346 346 350 350 351 353 350 350 344 348 350 350
348 350 349 344 341 350 348 349 351 349 349 352 350 346 343 342 345 349 348 349 349 350 352 351 352 352 352 350 347 338 343 337 338 339 342 349 351 351 347 342 351 351 350
348 348 349 344 344 349 349 349 349 351 350 351 352 351 347 343 343 349 350 344 343 343 351 352 352 352 352 353 343 340 347 351 347 344 342 340 349 352 349 348 348 350 349
347 349 349 343 342 349 351 350 351 351 351 350 350 352 350 351 344 346 346 344 344 341 346 351 352 352 352 349 330 339 340 342 344 347 348 342 340 350 347 337 335 346 350
351 349 345 347 351 351 350 352 351 350 349 349 348 349 348 351 347 348 348 348 345 349 351 351 351 352 351 341 336 339 340 344 347 349 345 336 337 347 352 349 351 345 337
350 350 351 350 350 351 350 351 351 352 352 350 349 349 348 347 347 347 350 345 349 351 350 351 349 349 345 341 344 344 345 345 348 348 347 337 349 351 351 351 350 350 347
349 349 350 349 348 347 348 351 351 349 347 347 347 347 348 347 347 347 346 350 350 349 350 350 351 351 339 339 343 345 346 348 345 348 347 345 347 350 351 350 349 350 350
346 347 347 347 350 351 349 350 348 348 345 347 348 343 347 344 345 348 348 351 349 350 349 349 349 349 347 337 342 344 345 346 344 348 347 343 347 351 351 348 349 348 347
345 344 343 345 346 345 345 344 344 347 344 338 339 343 340 338 346 348 349 349 351 350 349 350 349 349 339 335 338 342 344 346 343 344 348 343 345 350 347 346 345 349 348
343 343 343 344 344 343 343 342 337 328 341 332 339 346 342 345 346 347 350 346 351 351 350 350 350 350 346 333 330 336 344 348 345 344 330 339 346 350 350 350 348 347 347
341 340 340 341 341 342 340 347 346 346 347 348 350 349 348 349 349 349 349 348 352 351 351 350 350 349 347 345 328 333 341 350 344 344 329 332 340 348 349 350 348 348 349
340 339 340 340 342 343 345 348 346 348 350 351 351 350 351 351 349 350 346 349 350 352 350 350 349 348 347 348 346 336 344 347 344 346 331 330 344 349 344 347 346 346 348
341 341 340 343 342 347 349 347 346 348 349 349 352 352 352 353 349 350 348 349 349 349 349 347 347 347 347 345 345 347 345 346 346 345 331 331 334 342 341 335 347 348 344
340 341 341 344 346 349 348 349 348 349 349 350 352 353 353 353 354 350 350 351 349 350 349 348 349 348 346 347 344 346 343 348 347 344 334 334 334 338 349 347 343 343 346
341 343 343 346 349 350 349 353 349 349 350 350 352 356 355 354 352 351 350 350 352 349 350 350 349 348 349 348 347 344 345 345 350 349 344 337 338 336 339 345 343 346 345
343 344 346 346 349 350 352 352 353 353 353 353 353 354 355 354 354 351 352 351 351 348 348 349 349 348 347 346 345 347 347 346 346 349 350 347 340 340 340 344 349 347 347
342 344 344 345 347 351 353 354 354 355 353 353 353 356 351 350 355 355 354 353 352 351 351 349 348 348 349 347 347 347 346 349 350 351 350 349 348 345 341 342 343 345 345
343 342 346 346 348 352 352 354 353 355 355 354 354 355 357 351 354 347 354 353 347 345 347 348 348 348 350 349 348 348 348 347 348 347 347 349 348 348 347 346 339 341 345
344 342 344 347 351 351 353 354 354 352 356 353 354 356 355 356 358 350 354 352 351 353 351 351 350 347 346 349 346 346 346 342 340 343 342 347 346 346 347 349 347 344 340
346 346 346 348 352 352 353 354 353 353 354 356 353 356 358 357 352 353 354 354 353 353 351 351 352 349 348 349 347 348 348 343 345 346 343 341 342 342 344 348 346 343 344
352 352 351 352 353 351 353 352 352 352 354 355 355 356 355 359 356 356 354 354 352 354 354 355 351 353 351 349 351 351 353 350 350 348 347 343 343 343 341 342 344 343 346
349 352 353 353 353 352 354 349 351 354 353 352 346 353 353 359 357 354 355 355 354 354 352 353 350 353 352 351 351 348 352 353 352 349 349 347 346 345 347 349 347 344 344
349 350 353 352 357 354 354 353 350 353 354 355 357 358 357 357 356 357 358 358 355 351 337 346 354 353 349 352 352 353 351 349 355 356 351 350 350 348 348 349 351 346 346
349 350 353 354 358 355 355 355 352 350 354 350 355 348 353 347 358 357 357 358 355 353 350 351 352 354 351 350 351 351 347 351 351 352 355 354 354 353 353 351 352 350 350
348 350 352 355 356 357 356 353 354 352 352 356 356 353 357 357 357 359 358 358 356 356 353 352 355 356 353 353 353 351 347 353 352 353 349 353 354 352 353 350 349 350 351
Wind_Speed
17 15 16 16 15 14 14 13 12 13 12 11 12 13 12 13 15 15 13 13 14 13 13 13 15 16 16 18 20 21 21 20 22 21 20 20 21 21 20 19 20 20 20
21 18 17 16 16 14 14 13 13 11 12 12 12 13 15 13 14 14 12 12 13 13 13 14 15 16 16 17 16 18 18 20 21 21 20 18 17 16 18 21 18 20 17
21 19 17 16 16 15 14 12 12 11 12 12 13 13 13 12 13 12 11 13 13 13 14 16 16 15 15 16 15 17 19 20 21 23 18 15 15 16 17 17 17 17 15
21 19 17 17 15 15 14 14 11 11 11 12 12 13 13 13 11 11 11 11 15 15 16 16 15 16 15 14 15 18 18 14 14 17 17 17 13 14 15 15 17 15 14
25 23 18 16 14 13 13 13 11 10 9 10 11 11 11 12 13 13 13 15 16 18 18 17 16 16 15 13 17 17 15 12 9 8 13 16 13 13 14 16 14 15 13
22 21 20 17 15 13 12 10 10 9 7 8 10 9 10 10 11 13 14 17 17 18 18 17 16 15 14 15 19 16 13 11 15 21 19 18 15 14 11 13 14 13 11
23 21 19 18 16 13 10 8 9 8 6 6 8 8 7 8 8 11 14 15 17 16 17 16 16 14 14 16 15 12 7 8 14 18 18 14 14 13 13 12 12 13 13
23 22 19 17 16 13 11 7 8 8 5 4 4 5 5 5 6 7 11 13 15 15 15 14 14 12 13 14 10 7 6 11 15 12 17 13 14 12 12 12 12 12 12
23 20 18 15 14 13 10 9 6 5 4 3 1 3 3 2 4 6 8 12 13 14 14 13 11 10 10 11 10 7 9 9 12 12 13 14 13 12 11 11 11 9 10
23 21 17 16 13 12 9 9 6 6 5 4 3 2 3 1 3 6 9 11 14 13 13 12 11 10 8 9 10 9 7 8 15 17 16 12 12 10 10 10 10 9 9
22 21 22 17 14 14 12 9 6 6 8 5 5 6 0 5 5 6 8 11 13 14 13 12 11 10 9 9 9 9 8 3 12 13 14 13 12 10 9 9 9 9 9
14 17 19 15 15 14 10 10 5 7 8 6 5 7 6 5 6 9 11 11 14 14 14 13 12 10 10 7 10 10 9 4 13 14 15 13 12 11 10 9 8 8 7
22 20 18 14 18 15 17 8 6 9 14 10 6 5 8 6 7 11 11 11 14 14 14 14 12 11 10 11 12 9 7 12 17 14 15 13 13 11 10 10 9 8 7
17 11 15 14 10 6 17 10 9 8 12 9 9 5 6 4 7 11 15 14 14 16 16 13 11 11 9 9 8 7 7 10 2 19 17 14 13 12 10 10 11 8 8
21 16 14 13 11 6 9 2 9 10 5 10 8 6 5 4 8 10 11 12 14 13 15 16 13 13 15 10 10 8 7 4 9 14 17 14 13 13 11 9 10 9 8
18 19 19 15 14 10 8 2 6 7 5 6 6 6 6 6 7 10 9 13 14 15 16 15 15 12 10 10 12 13 8 9 3 6 13 14 12 13 13 11 10 10 8
20 18 15 14 14 14 12 9 5 8 6 8 8 7 9 8 6 7 10 11 10 13 11 15 12 9 11 12 12 11 7 9 9 6 6 12 15 13 12 13 12 12 11
21 22 20 19 20 16 16 13 11 10 9 10 9 11 8 8 7 10 8 11 11 11 9 13 10 11 11 11 12 13 11 7 2 3 5 10 14 13 13 14 14 14 13
22 24 23 17 22 19 16 13 11 11 8 8 9 13 9 8 8 10 9 10 5 10 13 13 13 12 8 8 6 10 11 8 3 5 15 10 9 7 10 11 12 13 13
22 22 18 16 19 20 20 13 13 9 12 6 7 9 10 10 9 9 6 10 7 7 9 10 9 11 8 6 9 10 14 16 19 20 20 8 5 5 10 12 12 13 14
25 24 21 20 23 21 18 16 14 13 9 12 11 12 9 11 11 8 6 7 6 5 5 13 11 9 6 5 7 7 10 13 17 19 19 20 18 18 15 13 15 16 17
24 25 22 21 19 16 16 15 19 19 17 12 12 10 11 10 7 8 6 10 8 7 5 5 6 7 5 9 7 6 2 5 12 14 17 21 22 22 21 23 21 20 18
23 23 21 16 21 19 17 15 7 10 14 20 15 15 12 14 12 10 8 6 9 5 6 6 8 5 4 8 10 5 2 2 6 11 17 15 16 17 17 18 19 22 23
26 27 25 23 21 18 18 15 15 12 13 16 14 16 12 13 12 10 9 8 7 9 5 10 11 9 5 10 10 10 3 6 3 3 14 19 19 21 20 21 21 18 18
29 28 28 27 22 20 19 13 17 15 16 11 6 10 10 12 13 12 9 8 9 8 11 13 14 10 9 8 6 4 1 5 5 2 2 8 18 22 19 20 24 20 20
29 29 29 31 27 22 23 19 16 20 21 9 12 25 17 10 12 11 10 9 8 9 10 15 10 6 6 4 1 3 6 4 5 5 4 8 15 18 24 21 21 20 24
Wind_Direction
132 136 141 131 121 120 116 107 102 97 86 78 70 73 76 91 96 93 93 103 104 116 107 101 98 97 94 95 94 97 99 103 105 99 100 97 96 98 103 103 91 95 95
127 131 136 134 126 120 116 112 106 98 90 78 68 70 81 90 99 96 99 104 107 108 112 106 106 103 100 98 101 105 111 109 108 105 99 93 89 94 101 113 101 99 99
127 130 130 132 127 124 118 110 104 100 92 84 76 72 74 88 100 99 102 110 119 115 113 110 111 108 106 104 109 115 116 113 111 102 102 100 94 95 106 108 100 101 103
132 133 132 135 132 126 124 114 105 102 96 87 82 71 69 69 86 103 101 112 123 125 117 113 112 110 107 106 115 126 121 125 128 131 94 108 105 99 104 105 107 105 109
133 129 134 137 133 127 123 118 112 99 93 93 86 79 71 61 77 94 91 105 117 121 116 111 108 111 109 112 122 124 115 113 122 111 133 104 109 105 98 98 112 114 112
116 126 134 136 131 129 125 123 116 110 101 96 92 81 74 68 66 93 98 111 116 116 116 110 108 108 111 118 127 123 116 106 101 115 120 112 117 110 104 117 117 123 129
128 131 135 140 137 135 130 134 123 117 106 95 91 88 83 80 70 70 108 113 118 120 120 115 110 107 110 126 127 123 105 76 98 112 105 109 113 112 109 112 115 115 111
132 138 137 144 143 143 143 146 136 131 120 101 92 95 91 101 101 94 111 122 125 128 126 123 115 114 112 125 136 133 102 80 117 110 115 124 120 120 118 115 119 120 117
140 137 146 149 146 147 152 160 154 158 152 158 173 109 85 90 134 130 124 130 137 136 140 141 136 127 124 125 137 116 99 102 138 123 118 125 132 127 125 124 117 121 125
137 145 154 157 159 160 169 181 189 200 208 214 223 96 7 297 140 145 147 149 146 148 150 155 158 158 150 132 136 134 120 117 153 129 131 129 130 130 133 125 136 129 131
155 156 165 166 171 184 187 201 210 220 222 215 196 157 252 146 183 174 160 162 156 156 159 159 164 170 177 179 167 161 167 167 110 149 135 137 129 128 128 129 131 141 145
162 170 174 174 183 180 181 194 226 216 225 232 208 188 197 174 168 155 164 163 166 164 166 171 175 181 181 195 195 204 225 243 146 146 129 142 143 141 137 132 127 128 134
174 188 176 188 182 180 177 179 212 220 220 198 186 176 153 149 158 147 163 163 169 175 171 179 192 197 210 213 224 233 276 262 158 156 144 149 148 151 148 148 139 141 139
175 185 200 166 178 104 149 192 200 203 201 212 186 188 134 143 153 174 169 175 170 184 183 181 190 204 220 211 223 272 210 305 36 166 151 157 159 161 159 160 151 152 159
173 181 208 173 177 162 191 254 172 190 190 167 170 155 163 163 150 150 175 184 188 178 183 188 193 221 209 226 201 226 245 20 99 155 155 166 167 171 172 169 168 176 176
177 193 183 177 179 184 197 198 163 180 195 166 188 177 177 148 154 171 173 180 185 183 179 189 191 198 210 224 200 184 248 234 120 133 169 175 177 177 180 181 181 186 191
180 184 155 172 172 187 186 188 189 179 207 198 197 182 180 157 161 181 187 192 179 178 199 198 169 192 214 217 225 195 207 246 251 148 185 180 187 186 189 185 196 192 206
187 165 183 187 172 181 188 184 200 208 192 198 199 201 171 164 168 181 185 175 181 181 179 167 177 194 215 221 248 199 204 201 205 191 170 206 202 195 191 195 206 206 210
184 168 180 203 168 174 177 186 196 203 207 204 197 193 182 169 184 176 176 177 172 172 187 191 196 204 216 214 215 187 204 219 186 203 235 212 167 177 210 214 207 216 221
166 162 190 190 172 163 168 195 200 215 209 215 207 211 195 170 187 194 179 178 167 200 204 181 182 197 211 224 230 230 237 239 242 238 246 248 202 166 227 219 209 226 229
165 167 194 183 160 162 165 193 201 222 214 198 200 190 192 191 189 196 187 178 165 191 149 170 175 200 208 213 193 225 232 231 235 242 245 245 246 234 242 222 234 246 233
166 169 184 185 165 173 194 200 196 203 211 210 196 208 176 205 191 205 196 182 174 182 167 175 189 184 190 179 194 165 158 226 232 229 244 235 243 252 246 248 245 244 237
172 169 179 200 171 188 208 203 204 182 177 199 200 216 200 196 198 191 183 168 176 160 168 193 199 182 156 195 200 165 158 211 175 218 224 237 235 242 243 252 247 240 239
173 174 180 189 179 195 221 210 201 213 214 221 219 198 199 199 186 189 189 184 167 202 159 197 215 197 192 196 204 213 132 143 184 149 218 227 230 229 231 227 238 235 226
178 179 176 180 184 194 211 219 180 212 235 254 176 4 219 198 189 187 188 194 158 201 207 218 213 196 193 214 265 182 173 228 231 133 209 215 218 224 224 228 228 235 226
179 179 177 176 187 196 198 213 194 216 242 222 165 172 198 200 195 178 181 198 180 201 176 204 188 193 214 241 299 188 234 230 250 181 214 216 208 222 219 228 236 239 217